Year,Month,Day,Hour,Minute,Value (Times are PST for temperature in C)
2008,04,17,00,00,6.00
2008,04,17,00,01,6.00
2008,04,17,00,02,6.00
2008,04,17,00,03,6.00
2008,04,17,00,04,6.00
2008,04,17,00,05,6.00
2008,04,17,00,06,6.00
2008,04,17,00,07,6.00
2008,04,17,00,08,6.00
2008,04,17,00,09,6.10
2008,04,17,00,10,6.10
2008,04,17,00,11,6.10
2008,04,17,00,12,6.20
2008,04,17,00,13,6.20
2008,04,17,00,14,6.20
2008,04,17,00,15,6.20
2008,04,17,00,16,6.30
2008,04,17,00,17,6.30
2008,04,17,00,18,6.30
2008,04,17,00,19,6.30
2008,04,17,00,20,6.30
2008,04,17,00,21,6.20
2008,04,17,00,22,6.20
2008,04,17,00,23,6.20
2008,04,17,00,24,6.20
2008,04,17,00,25,6.20
2008,04,17,00,26,6.20
2008,04,17,00,27,6.20
2008,04,17,00,28,6.20
2008,04,17,00,29,6.20
2008,04,17,00,30,6.20
2008,04,17,00,31,6.20
2008,04,17,00,32,6.20
2008,04,17,00,33,6.20
2008,04,17,00,34,6.20
2008,04,17,00,35,6.20
2008,04,17,00,36,6.10
2008,04,17,00,37,6.10
2008,04,17,00,38,6.10
2008,04,17,00,39,6.10
2008,04,17,00,40,6.10
2008,04,17,00,41,6.00
2008,04,17,00,42,6.00
2008,04,17,00,43,6.00
2008,04,17,00,44,6.00
2008,04,17,00,45,5.90
2008,04,17,00,46,5.90
2008,04,17,00,47,5.90
2008,04,17,00,48,5.80
2008,04,17,00,49,5.80
2008,04,17,00,50,5.80
2008,04,17,00,51,5.80
2008,04,17,00,52,5.80
2008,04,17,00,53,5.70
2008,04,17,00,54,5.70
2008,04,17,00,55,5.70
2008,04,17,00,56,5.70
2008,04,17,00,57,5.70
2008,04,17,00,58,5.70
2008,04,17,00,59,5.70
2008,04,17,01,00,5.70
2008,04,17,01,01,5.70
2008,04,17,01,02,5.70
2008,04,17,01,03,5.70
2008,04,17,01,04,5.70
2008,04,17,01,05,5.70
2008,04,17,01,06,5.70
2008,04,17,01,07,5.70
2008,04,17,01,08,5.70
2008,04,17,01,09,5.70
2008,04,17,01,10,5.70
2008,04,17,01,11,5.80
2008,04,17,01,12,5.80
2008,04,17,01,13,5.80
2008,04,17,01,14,5.90
2008,04,17,01,15,6.00
2008,04,17,01,16,6.10
2008,04,17,01,17,6.10
2008,04,17,01,18,6.10
2008,04,17,01,19,6.20
2008,04,17,01,20,6.20
2008,04,17,01,21,6.20
2008,04,17,01,22,6.20
2008,04,17,01,23,6.20
2008,04,17,01,24,6.20
2008,04,17,01,25,6.20
2008,04,17,01,26,6.20
2008,04,17,01,27,6.20
2008,04,17,01,28,6.20
2008,04,17,01,29,6.20
2008,04,17,01,30,6.20
2008,04,17,01,31,6.20
2008,04,17,01,32,6.20
2008,04,17,01,33,6.20
2008,04,17,01,34,6.10
2008,04,17,01,35,6.10
2008,04,17,01,36,6.10
2008,04,17,01,37,6.10
2008,04,17,01,38,6.10
2008,04,17,01,39,6.10
2008,04,17,01,40,6.00
2008,04,17,01,41,6.00
2008,04,17,01,42,5.90
2008,04,17,01,43,5.90
2008,04,17,01,44,5.80
2008,04,17,01,45,5.80
2008,04,17,01,46,5.80
2008,04,17,01,47,5.80
2008,04,17,01,48,5.80
2008,04,17,01,49,5.80
2008,04,17,01,50,5.80
2008,04,17,01,51,5.80
2008,04,17,01,52,5.80
2008,04,17,01,53,5.80
2008,04,17,01,54,5.80
2008,04,17,01,55,5.80
2008,04,17,01,56,5.80
2008,04,17,01,57,5.80
2008,04,17,01,58,5.80
2008,04,17,01,59,5.80
2008,04,17,02,00,5.70
2008,04,17,02,01,5.70
2008,04,17,02,02,5.70
2008,04,17,02,03,5.70
2008,04,17,02,04,5.70
2008,04,17,02,05,5.70
2008,04,17,02,06,5.60
2008,04,17,02,07,5.60
2008,04,17,02,08,5.50
2008,04,17,02,09,5.50
2008,04,17,02,10,5.40
2008,04,17,02,11,5.30
2008,04,17,02,12,5.30
2008,04,17,02,13,5.20
2008,04,17,02,14,5.20
2008,04,17,02,15,5.10
2008,04,17,02,16,5.10
2008,04,17,02,17,5.10
2008,04,17,02,18,5.10
2008,04,17,02,19,4.90
2008,04,17,02,20,4.90
2008,04,17,02,21,4.90
2008,04,17,02,22,4.90
2008,04,17,02,23,4.90
2008,04,17,02,24,4.90
2008,04,17,02,25,4.80
2008,04,17,02,26,4.80
2008,04,17,02,27,4.80
2008,04,17,02,28,4.80
2008,04,17,02,29,4.80
2008,04,17,02,30,4.90
2008,04,17,02,31,4.90
2008,04,17,02,32,4.90
2008,04,17,02,33,4.90
2008,04,17,02,34,4.90
2008,04,17,02,35,4.90
2008,04,17,02,36,4.90
2008,04,17,02,37,4.90
2008,04,17,02,38,4.90
2008,04,17,02,39,4.90
2008,04,17,02,40,4.90
2008,04,17,02,41,4.90
2008,04,17,02,42,4.90
2008,04,17,02,43,4.90
2008,04,17,02,44,4.90
2008,04,17,02,45,5.00
2008,04,17,02,46,5.10
2008,04,17,02,47,5.10
2008,04,17,02,48,5.10
2008,04,17,02,49,5.10
2008,04,17,02,50,5.10
2008,04,17,02,51,5.20
2008,04,17,02,52,5.30
2008,04,17,02,53,5.30
2008,04,17,02,54,5.30
2008,04,17,02,55,5.30
2008,04,17,02,56,5.30
2008,04,17,02,57,5.40
2008,04,17,02,58,5.40
2008,04,17,02,59,5.40
2008,04,17,03,00,5.40
2008,04,17,03,01,5.40
2008,04,17,03,02,5.40
2008,04,17,03,03,5.40
2008,04,17,03,04,5.40
2008,04,17,03,05,5.40
2008,04,17,03,06,5.40
2008,04,17,03,07,5.40
2008,04,17,03,08,5.40
2008,04,17,03,09,5.40
2008,04,17,03,10,5.40
2008,04,17,03,11,5.30
2008,04,17,03,12,5.30
2008,04,17,03,13,5.30
2008,04,17,03,14,5.20
2008,04,17,03,15,5.20
2008,04,17,03,16,5.10
2008,04,17,03,17,5.10
2008,04,17,03,18,4.90
2008,04,17,03,19,4.90
2008,04,17,03,20,4.90
2008,04,17,03,21,4.90
2008,04,17,03,22,4.90
2008,04,17,03,23,4.90
2008,04,17,03,24,4.80
2008,04,17,03,25,4.80
2008,04,17,03,26,4.80
2008,04,17,03,27,4.80
2008,04,17,03,28,4.80
2008,04,17,03,29,4.90
2008,04,17,03,30,4.90
2008,04,17,03,31,4.90
2008,04,17,03,32,4.90
2008,04,17,03,33,4.90
2008,04,17,03,34,4.90
2008,04,17,03,35,4.90
2008,04,17,03,36,4.90
2008,04,17,03,37,4.90
2008,04,17,03,38,4.80
2008,04,17,03,39,4.80
2008,04,17,03,40,4.80
2008,04,17,03,41,4.70
2008,04,17,03,42,4.60
2008,04,17,03,43,4.50
2008,04,17,03,44,4.40
2008,04,17,03,45,4.40
2008,04,17,03,46,4.20
2008,04,17,03,47,4.20
2008,04,17,03,48,4.10
2008,04,17,03,49,4.10
2008,04,17,03,50,4.00
2008,04,17,03,51,4.00
2008,04,17,03,52,3.90
2008,04,17,03,53,3.90
2008,04,17,03,54,3.80
2008,04,17,03,55,3.80
2008,04,17,03,56,3.80
2008,04,17,03,57,3.80
2008,04,17,03,58,3.90
2008,04,17,03,59,3.90
2008,04,17,04,00,4.00
2008,04,17,04,01,4.00
2008,04,17,04,02,4.10
2008,04,17,04,03,4.10
2008,04,17,04,04,4.20
2008,04,17,04,05,4.20
2008,04,17,04,06,4.20
2008,04,17,04,07,4.20
2008,04,17,04,08,4.20
2008,04,17,04,09,4.20
2008,04,17,04,10,4.20
2008,04,17,04,11,4.20
2008,04,17,04,12,4.20
2008,04,17,04,13,4.20
2008,04,17,04,14,4.20
2008,04,17,04,15,4.20
2008,04,17,04,16,4.20
2008,04,17,04,17,4.20
2008,04,17,04,18,4.20
2008,04,17,04,19,4.20
2008,04,17,04,20,4.10
2008,04,17,04,21,4.10
2008,04,17,04,22,4.10
2008,04,17,04,23,4.10
2008,04,17,04,24,4.20
2008,04,17,04,25,4.20
2008,04,17,04,26,4.20
2008,04,17,04,27,4.20
2008,04,17,04,28,4.20
2008,04,17,04,29,4.20
2008,04,17,04,30,4.20
2008,04,17,04,31,4.20
2008,04,17,04,32,4.20
2008,04,17,04,33,4.10
2008,04,17,04,34,4.10
2008,04,17,04,35,4.10
2008,04,17,04,36,4.10
2008,04,17,04,37,4.10
2008,04,17,04,38,4.10
2008,04,17,04,39,4.10
2008,04,17,04,40,4.10
2008,04,17,04,41,4.20
2008,04,17,04,42,4.20
2008,04,17,04,43,4.20
2008,04,17,04,44,4.20
2008,04,17,04,45,4.20
2008,04,17,04,46,4.20
2008,04,17,04,47,4.20
2008,04,17,04,48,4.20
2008,04,17,04,49,4.20
2008,04,17,04,50,4.20
2008,04,17,04,51,4.20
2008,04,17,04,52,4.30
2008,04,17,04,53,4.30
2008,04,17,04,54,4.30
2008,04,17,04,55,4.30
2008,04,17,04,56,4.40
2008,04,17,04,57,4.40
2008,04,17,04,58,4.40
2008,04,17,04,59,4.40
2008,04,17,05,00,4.40
2008,04,17,05,01,4.40
2008,04,17,05,02,4.50
2008,04,17,05,03,4.50
2008,04,17,05,04,4.50
2008,04,17,05,05,4.40
2008,04,17,05,06,4.40
2008,04,17,05,07,4.40
2008,04,17,05,08,4.30
2008,04,17,05,09,4.30
2008,04,17,05,10,4.20
2008,04,17,05,11,4.20
2008,04,17,05,12,4.20
2008,04,17,05,13,4.20
2008,04,17,05,14,4.10
2008,04,17,05,15,4.10
2008,04,17,05,16,4.10
2008,04,17,05,17,4.00
2008,04,17,05,18,4.00
2008,04,17,05,19,4.00
2008,04,17,05,20,4.00
2008,04,17,05,21,4.00
2008,04,17,05,22,4.10
2008,04,17,05,23,4.10
2008,04,17,05,24,4.20
2008,04,17,05,25,4.20
2008,04,17,05,26,4.30
2008,04,17,05,27,4.40
2008,04,17,05,28,4.50
2008,04,17,05,29,4.60
2008,04,17,05,30,4.60
2008,04,17,05,31,4.60
2008,04,17,05,32,4.70
2008,04,17,05,33,4.70
2008,04,17,05,34,4.70
2008,04,17,05,35,4.70
2008,04,17,05,36,4.80
2008,04,17,05,37,4.90
2008,04,17,05,38,4.90
2008,04,17,05,39,4.90
2008,04,17,05,40,5.00
2008,04,17,05,41,5.10
2008,04,17,05,42,5.10
2008,04,17,05,43,4.90
2008,04,17,05,44,4.90
2008,04,17,05,45,4.80
2008,04,17,05,46,4.80
2008,04,17,05,47,4.70
2008,04,17,05,48,4.50
2008,04,17,05,49,4.50
2008,04,17,05,50,4.40
2008,04,17,05,51,4.30
2008,04,17,05,52,4.20
2008,04,17,05,53,4.30
2008,04,17,05,54,4.30
2008,04,17,05,55,4.30
2008,04,17,05,56,4.20
2008,04,17,05,57,4.20
2008,04,17,05,58,4.20
2008,04,17,05,59,4.20
2008,04,17,06,00,4.20
2008,04,17,06,01,4.10
2008,04,17,06,02,4.10
2008,04,17,06,03,4.00
2008,04,17,06,04,4.00
2008,04,17,06,05,3.80
2008,04,17,06,06,3.80
2008,04,17,06,07,3.70
2008,04,17,06,08,3.70
2008,04,17,06,09,3.60
2008,04,17,06,10,3.50
2008,04,17,06,11,3.50
2008,04,17,06,12,3.50
2008,04,17,06,13,3.40
2008,04,17,06,14,3.40
2008,04,17,06,15,3.40
2008,04,17,06,16,3.40
2008,04,17,06,17,3.40
2008,04,17,06,18,3.50
2008,04,17,06,19,3.50
2008,04,17,06,20,3.50
2008,04,17,06,21,3.50
2008,04,17,06,22,3.50
2008,04,17,06,23,3.40
2008,04,17,06,24,3.40
2008,04,17,06,25,3.30
2008,04,17,06,26,3.30
2008,04,17,06,27,3.20
2008,04,17,06,28,3.20
2008,04,17,06,29,3.20
2008,04,17,06,30,3.20
2008,04,17,06,31,3.20
2008,04,17,06,32,3.20
2008,04,17,06,33,3.20
2008,04,17,06,34,3.20
2008,04,17,06,35,3.30
2008,04,17,06,36,3.30
2008,04,17,06,37,3.30
2008,04,17,06,38,3.30
2008,04,17,06,39,3.40
2008,04,17,06,40,3.40
2008,04,17,06,41,3.40
2008,04,17,06,42,3.50
2008,04,17,06,43,3.50
2008,04,17,06,44,3.60
2008,04,17,06,45,3.70
2008,04,17,06,46,3.70
2008,04,17,06,47,3.80
2008,04,17,06,48,3.80
2008,04,17,06,49,3.90
2008,04,17,06,50,4.00
2008,04,17,06,51,4.10
2008,04,17,06,52,4.10
2008,04,17,06,53,4.10
2008,04,17,06,54,4.10
2008,04,17,06,55,4.20
2008,04,17,06,56,4.20
2008,04,17,06,57,4.20
2008,04,17,06,58,4.10
2008,04,17,06,59,4.10
2008,04,17,07,00,4.10
2008,04,17,07,01,4.00
2008,04,17,07,02,4.00
2008,04,17,07,03,3.90
2008,04,17,07,04,3.80
2008,04,17,07,05,3.80
2008,04,17,07,06,3.90
2008,04,17,07,07,3.90
2008,04,17,07,08,3.90
2008,04,17,07,09,3.80
2008,04,17,07,10,3.90
2008,04,17,07,11,3.90
2008,04,17,07,12,3.90
2008,04,17,07,13,3.80
2008,04,17,07,14,3.80
2008,04,17,07,15,3.80
2008,04,17,07,16,3.80
2008,04,17,07,17,3.70
2008,04,17,07,18,3.70
2008,04,17,07,19,3.70
2008,04,17,07,20,3.70
2008,04,17,07,21,3.70
2008,04,17,07,22,3.70
2008,04,17,07,23,3.70
2008,04,17,07,24,3.80
2008,04,17,07,25,3.90
2008,04,17,07,26,4.00
2008,04,17,07,27,4.00
2008,04,17,07,28,4.20
2008,04,17,07,29,4.20
2008,04,17,07,30,4.20
2008,04,17,07,31,4.30
2008,04,17,07,32,4.30
2008,04,17,07,33,4.40
2008,04,17,07,34,4.50
2008,04,17,07,35,4.50
2008,04,17,07,36,4.60
2008,04,17,07,37,4.60
2008,04,17,07,38,4.60
2008,04,17,07,39,4.60
2008,04,17,07,40,4.70
2008,04,17,07,41,4.70
2008,04,17,07,42,4.80
2008,04,17,07,43,4.80
2008,04,17,07,44,4.90
2008,04,17,07,45,4.90
2008,04,17,07,46,5.10
2008,04,17,07,47,5.10
2008,04,17,07,48,5.10
2008,04,17,07,49,5.20
2008,04,17,07,50,5.30
2008,04,17,07,51,5.40
2008,04,17,07,52,5.50
2008,04,17,07,53,5.60
2008,04,17,07,54,5.70
2008,04,17,07,55,5.70
2008,04,17,07,56,5.80
2008,04,17,07,57,5.80
2008,04,17,07,58,5.90
2008,04,17,07,59,6.00
2008,04,17,08,00,6.00
2008,04,17,08,01,6.10
2008,04,17,08,02,6.20
2008,04,17,08,03,6.20
2008,04,17,08,04,6.30
2008,04,17,08,05,6.30
2008,04,17,08,06,6.40
2008,04,17,08,07,6.50
2008,04,17,08,08,6.60
2008,04,17,08,09,6.60
2008,04,17,08,10,6.70
2008,04,17,08,11,6.80
2008,04,17,08,12,6.80
2008,04,17,08,13,7.00
2008,04,17,08,14,7.10
2008,04,17,08,15,7.10
2008,04,17,08,16,7.20
2008,04,17,08,17,7.20
2008,04,17,08,18,7.30
2008,04,17,08,19,7.30
2008,04,17,08,20,7.30
2008,04,17,08,21,7.40
2008,04,17,08,22,7.40
2008,04,17,08,23,7.50
2008,04,17,08,24,7.50
2008,04,17,08,25,7.60
2008,04,17,08,26,7.60
2008,04,17,08,27,7.70
2008,04,17,08,28,7.70
2008,04,17,08,29,7.80
2008,04,17,08,30,7.80
2008,04,17,08,31,7.80
2008,04,17,08,32,7.90
2008,04,17,08,33,7.90
2008,04,17,08,34,7.90
2008,04,17,08,35,7.90
2008,04,17,08,36,8.00
2008,04,17,08,37,8.00
2008,04,17,08,38,8.00
2008,04,17,08,39,8.00
2008,04,17,08,40,8.10
2008,04,17,08,41,8.10
2008,04,17,08,42,8.10
2008,04,17,08,43,8.20
2008,04,17,08,44,8.20
2008,04,17,08,45,8.20
2008,04,17,08,46,8.20
2008,04,17,08,47,8.30
2008,04,17,08,48,8.30
2008,04,17,08,49,8.30
2008,04,17,08,50,8.40
2008,04,17,08,51,8.40
2008,04,17,08,52,8.50
2008,04,17,08,53,8.50
2008,04,17,08,54,8.50
2008,04,17,08,55,8.50
2008,04,17,08,56,8.60
2008,04,17,08,57,8.60
2008,04,17,08,58,8.60
2008,04,17,08,59,8.70
2008,04,17,09,00,8.70
2008,04,17,09,01,8.70
2008,04,17,09,02,8.70
2008,04,17,09,03,8.70
2008,04,17,09,04,8.70
2008,04,17,09,05,8.80
2008,04,17,09,06,8.80
2008,04,17,09,07,8.80
2008,04,17,09,08,8.90
2008,04,17,09,09,8.90
2008,04,17,09,10,9.00
2008,04,17,09,11,9.00
2008,04,17,09,12,9.10
2008,04,17,09,13,9.10
2008,04,17,09,14,9.20
2008,04,17,09,15,9.20
2008,04,17,09,16,9.20
2008,04,17,09,17,9.30
2008,04,17,09,18,9.30
2008,04,17,09,19,9.30
2008,04,17,09,20,9.40
2008,04,17,09,21,9.40
2008,04,17,09,22,9.50
2008,04,17,09,23,9.50
2008,04,17,09,24,9.60
2008,04,17,09,25,9.60
2008,04,17,09,26,9.60
2008,04,17,09,27,9.70
2008,04,17,09,28,9.70
2008,04,17,09,29,9.70
2008,04,17,09,30,9.70
2008,04,17,09,31,9.70
2008,04,17,09,32,9.70
2008,04,17,09,33,9.90
2008,04,17,09,34,9.90
2008,04,17,09,35,10.00
2008,04,17,09,36,10.10
2008,04,17,09,37,10.10
2008,04,17,09,38,10.20
2008,04,17,09,39,10.30
2008,04,17,09,40,10.30
2008,04,17,09,41,10.30
2008,04,17,09,42,10.30
2008,04,17,09,43,10.30
2008,04,17,09,44,10.30
2008,04,17,09,45,10.30
2008,04,17,09,46,10.30
2008,04,17,09,47,10.30
2008,04,17,09,48,10.30
2008,04,17,09,49,10.40
2008,04,17,09,50,10.40
2008,04,17,09,51,10.60
2008,04,17,09,52,10.70
2008,04,17,09,53,10.80
2008,04,17,09,54,10.90
2008,04,17,09,55,11.00
2008,04,17,09,56,11.10
2008,04,17,09,57,11.10
2008,04,17,09,58,11.30
2008,04,17,09,59,11.20
2008,04,17,10,00,11.20
2008,04,17,10,01,11.20
2008,04,17,10,02,11.20
2008,04,17,10,03,11.30
2008,04,17,10,04,11.30
2008,04,17,10,05,11.20
2008,04,17,10,06,11.10
2008,04,17,10,07,11.10
2008,04,17,10,08,11.00
2008,04,17,10,09,10.90
2008,04,17,10,10,10.90
2008,04,17,10,11,10.90
2008,04,17,10,12,10.90
2008,04,17,10,13,10.90
2008,04,17,10,14,10.90
2008,04,17,10,15,10.90
2008,04,17,10,16,10.90
2008,04,17,10,17,11.00
2008,04,17,10,18,11.10
2008,04,17,10,19,11.20
2008,04,17,10,20,11.20
2008,04,17,10,21,11.20
2008,04,17,10,22,11.20
2008,04,17,10,23,11.20
2008,04,17,10,24,11.20
2008,04,17,10,25,11.20
2008,04,17,10,26,11.10
2008,04,17,10,27,11.10
2008,04,17,10,28,11.10
2008,04,17,10,29,11.20
2008,04,17,10,30,11.30
2008,04,17,10,31,11.40
2008,04,17,10,32,11.50
2008,04,17,10,33,11.60
2008,04,17,10,34,11.80
2008,04,17,10,35,11.80
2008,04,17,10,36,12.00
2008,04,17,10,37,12.10
2008,04,17,10,38,12.20
2008,04,17,10,39,12.30
2008,04,17,10,40,12.30
2008,04,17,10,41,12.30
2008,04,17,10,42,12.30
2008,04,17,10,43,12.30
2008,04,17,10,44,12.30
2008,04,17,10,45,12.20
2008,04,17,10,46,12.10
2008,04,17,10,47,12.00
2008,04,17,10,48,11.90
2008,04,17,10,49,11.80
2008,04,17,10,50,11.70
2008,04,17,10,51,11.60
2008,04,17,10,52,11.60
2008,04,17,10,53,11.60
2008,04,17,10,54,11.60
2008,04,17,10,55,11.60
2008,04,17,10,56,11.60
2008,04,17,10,57,11.60
2008,04,17,10,58,11.60
2008,04,17,10,59,11.70
2008,04,17,11,00,11.70
2008,04,17,11,01,11.80
2008,04,17,11,02,11.80
2008,04,17,11,03,11.90
2008,04,17,11,04,12.10
2008,04,17,11,05,12.30
2008,04,17,11,06,12.40
2008,04,17,11,07,12.50
2008,04,17,11,08,12.50
2008,04,17,11,09,12.50
2008,04,17,11,10,12.30
2008,04,17,11,11,12.30
2008,04,17,11,12,12.20
2008,04,17,11,13,12.00
2008,04,17,11,14,11.90
2008,04,17,11,15,11.80
2008,04,17,11,16,11.80
2008,04,17,11,17,11.90
2008,04,17,11,18,12.00
2008,04,17,11,19,12.10
2008,04,17,11,20,12.20
2008,04,17,11,21,12.20
2008,04,17,11,22,12.20
2008,04,17,11,23,12.40
2008,04,17,11,24,12.50
2008,04,17,11,25,12.60
2008,04,17,11,26,12.80
2008,04,17,11,27,12.90
2008,04,17,11,28,13.00
2008,04,17,11,29,13.10
2008,04,17,11,30,13.20
2008,04,17,11,31,13.30
2008,04,17,11,32,13.30
2008,04,17,11,33,13.20
2008,04,17,11,34,13.10
2008,04,17,11,35,13.10
2008,04,17,11,36,13.00
2008,04,17,11,37,12.90
2008,04,17,11,38,12.90
2008,04,17,11,39,13.00
2008,04,17,11,40,13.20
2008,04,17,11,41,13.30
2008,04,17,11,42,13.40
2008,04,17,11,43,13.50
2008,04,17,11,44,13.60
2008,04,17,11,45,13.70
2008,04,17,11,46,13.60
2008,04,17,11,47,13.60
2008,04,17,11,48,13.50
2008,04,17,11,49,13.50
2008,04,17,11,50,13.40
2008,04,17,11,51,13.30
2008,04,17,11,52,13.20
2008,04,17,11,53,13.10
2008,04,17,11,54,13.00
2008,04,17,11,55,12.90
2008,04,17,11,56,12.90
2008,04,17,11,57,13.00
2008,04,17,11,58,13.20
2008,04,17,11,59,13.20
2008,04,17,12,00,13.20
2008,04,17,12,01,13.20
2008,04,17,12,02,13.40
2008,04,17,12,03,13.40
2008,04,17,12,04,13.50
2008,04,17,12,05,13.40
2008,04,17,12,06,13.40
2008,04,17,12,07,13.40
2008,04,17,12,08,13.50
2008,04,17,12,09,13.50
2008,04,17,12,10,13.50
2008,04,17,12,11,13.50
2008,04,17,12,12,13.60
2008,04,17,12,13,13.60
2008,04,17,12,14,13.50
2008,04,17,12,15,13.40
2008,04,17,12,16,13.50
2008,04,17,12,17,13.60
2008,04,17,12,18,13.60
2008,04,17,12,19,13.70
2008,04,17,12,20,13.90
2008,04,17,12,21,14.00
2008,04,17,12,22,14.10
2008,04,17,12,23,14.20
2008,04,17,12,24,14.10
2008,04,17,12,25,13.90
2008,04,17,12,26,13.70
2008,04,17,12,27,13.70
2008,04,17,12,28,13.70
2008,04,17,12,29,13.70
2008,04,17,12,30,13.70
2008,04,17,12,31,13.70
2008,04,17,12,32,13.70
2008,04,17,12,33,13.70
2008,04,17,12,34,13.80
2008,04,17,12,35,13.90
2008,04,17,12,36,13.90
2008,04,17,12,37,14.00
2008,04,17,12,38,14.10
2008,04,17,12,39,14.10
2008,04,17,12,40,13.90
2008,04,17,12,41,13.70
2008,04,17,12,42,13.80
2008,04,17,12,43,13.80
2008,04,17,12,44,13.80
2008,04,17,12,45,13.80
2008,04,17,12,46,13.80
2008,04,17,12,47,13.90
2008,04,17,12,48,14.00
2008,04,17,12,49,14.00
2008,04,17,12,50,14.00
2008,04,17,12,51,14.10
2008,04,17,12,52,14.10
2008,04,17,12,53,14.00
2008,04,17,12,54,14.00
2008,04,17,12,55,14.00
2008,04,17,12,56,14.10
2008,04,17,12,57,14.00
2008,04,17,12,58,14.00
2008,04,17,12,59,13.90
2008,04,17,13,00,13.80
2008,04,17,13,01,13.70
2008,04,17,13,02,13.60
2008,04,17,13,03,13.40
2008,04,17,13,04,13.40
2008,04,17,13,05,13.50
2008,04,17,13,06,13.50
2008,04,17,13,07,13.50
2008,04,17,13,08,13.50
2008,04,17,13,09,13.60
2008,04,17,13,10,13.70
2008,04,17,13,11,13.60
2008,04,17,13,12,13.50
2008,04,17,13,13,13.50
2008,04,17,13,14,13.60
2008,04,17,13,15,13.70
2008,04,17,13,16,13.60
2008,04,17,13,17,13.50
2008,04,17,13,18,13.50
2008,04,17,13,19,13.50
2008,04,17,13,20,13.60
2008,04,17,13,21,13.70
2008,04,17,13,22,13.70
2008,04,17,13,23,13.70
2008,04,17,13,24,13.70
2008,04,17,13,25,13.70
2008,04,17,13,26,13.80
2008,04,17,13,27,13.80
2008,04,17,13,28,13.70
2008,04,17,13,29,13.50
2008,04,17,13,30,13.60
2008,04,17,13,31,13.60
2008,04,17,13,32,13.50
2008,04,17,13,33,13.40
2008,04,17,13,34,13.40
2008,04,17,13,35,13.40
2008,04,17,13,36,13.60
2008,04,17,13,37,13.70
2008,04,17,13,38,13.70
2008,04,17,13,39,13.80
2008,04,17,13,40,14.00
2008,04,17,13,41,13.90
2008,04,17,13,42,13.70
2008,04,17,13,43,13.50
2008,04,17,13,44,13.50
2008,04,17,13,45,13.30
2008,04,17,13,46,13.30
2008,04,17,13,47,13.50
2008,04,17,13,48,13.40
2008,04,17,13,49,13.40
2008,04,17,13,50,13.50
2008,04,17,13,51,13.60
2008,04,17,13,52,13.80
2008,04,17,13,53,13.80
2008,04,17,13,54,13.90
2008,04,17,13,55,13.90
2008,04,17,13,56,14.00
2008,04,17,13,57,14.10
2008,04,17,13,58,14.10
2008,04,17,13,59,14.10
2008,04,17,14,00,14.10
2008,04,17,14,01,14.20
2008,04,17,14,02,14.20
2008,04,17,14,03,14.00
2008,04,17,14,04,14.00
2008,04,17,14,05,14.10
2008,04,17,14,06,14.20
2008,04,17,14,07,14.30
2008,04,17,14,08,14.40
2008,04,17,14,09,14.60
2008,04,17,14,10,14.60
2008,04,17,14,11,14.70
2008,04,17,14,12,14.70
2008,04,17,14,13,14.70
2008,04,17,14,14,14.70
2008,04,17,14,15,14.80
2008,04,17,14,16,14.80
2008,04,17,14,17,14.90
2008,04,17,14,18,14.90
2008,04,17,14,19,14.90
2008,04,17,14,20,14.80
2008,04,17,14,21,14.90
2008,04,17,14,22,14.90
2008,04,17,14,23,14.90
2008,04,17,14,24,14.80
2008,04,17,14,25,14.80
2008,04,17,14,26,14.80
2008,04,17,14,27,14.80
2008,04,17,14,28,14.90
2008,04,17,14,29,14.90
2008,04,17,14,30,15.00
2008,04,17,14,31,15.00
2008,04,17,14,32,15.00
2008,04,17,14,33,15.00
2008,04,17,14,34,15.10
2008,04,17,14,35,15.10
2008,04,17,14,36,15.20
2008,04,17,14,37,15.20
2008,04,17,14,38,15.20
2008,04,17,14,39,15.20
2008,04,17,14,40,15.20
2008,04,17,14,41,15.10
2008,04,17,14,42,15.00
2008,04,17,14,43,15.00
2008,04,17,14,44,14.90
2008,04,17,14,45,14.90
2008,04,17,14,46,14.90
2008,04,17,14,47,14.90
2008,04,17,14,48,14.80
2008,04,17,14,49,14.80
2008,04,17,14,50,14.80
2008,04,17,14,51,14.80
2008,04,17,14,52,14.80
2008,04,17,14,53,14.80
2008,04,17,14,54,14.80
2008,04,17,14,55,14.80
2008,04,17,14,56,14.80
2008,04,17,14,57,14.80
2008,04,17,14,58,14.70
2008,04,17,14,59,14.70
2008,04,17,15,00,14.70
2008,04,17,15,01,14.70
2008,04,17,15,02,14.60
2008,04,17,15,03,14.50
2008,04,17,15,04,14.50
2008,04,17,15,05,14.50
2008,04,17,15,06,14.50
2008,04,17,15,07,14.50
2008,04,17,15,08,14.50
2008,04,17,15,09,14.60
2008,04,17,15,10,14.70
2008,04,17,15,11,14.60
2008,04,17,15,12,14.60
2008,04,17,15,13,14.60
2008,04,17,15,14,14.60
2008,04,17,15,15,14.60
2008,04,17,15,16,14.60
2008,04,17,15,17,14.50
2008,04,17,15,18,14.50
2008,04,17,15,19,14.50
2008,04,17,15,20,14.50
2008,04,17,15,21,14.40
2008,04,17,15,22,14.40
2008,04,17,15,23,14.30
2008,04,17,15,24,14.40
2008,04,17,15,25,14.50
2008,04,17,15,26,14.50
2008,04,17,15,27,14.40
2008,04,17,15,28,14.20
2008,04,17,15,29,14.20
2008,04,17,15,30,14.20
2008,04,17,15,31,14.20
2008,04,17,15,32,14.20
2008,04,17,15,33,14.20
2008,04,17,15,34,14.20
2008,04,17,15,35,14.10
2008,04,17,15,36,14.00
2008,04,17,15,37,13.80
2008,04,17,15,38,13.70
2008,04,17,15,39,13.60
2008,04,17,15,40,13.60
2008,04,17,15,41,13.60
2008,04,17,15,42,13.60
2008,04,17,15,43,13.60
2008,04,17,15,44,13.70
2008,04,17,15,45,13.80
2008,04,17,15,46,13.70
2008,04,17,15,47,13.60
2008,04,17,15,48,13.50
2008,04,17,15,49,13.40
2008,04,17,15,50,13.40
2008,04,17,15,51,13.10
2008,04,17,15,52,13.00
2008,04,17,15,53,13.10
2008,04,17,15,54,13.10
2008,04,17,15,55,13.20
2008,04,17,15,56,13.30
2008,04,17,15,57,13.30
2008,04,17,15,58,13.40
2008,04,17,15,59,13.30
2008,04,17,16,00,13.30
2008,04,17,16,01,13.40
2008,04,17,16,02,13.40
2008,04,17,16,03,13.30
2008,04,17,16,04,13.20
2008,04,17,16,05,13.00
2008,04,17,16,06,13.00
2008,04,17,16,07,12.80
2008,04,17,16,08,12.80
2008,04,17,16,09,12.60
2008,04,17,16,10,12.50
2008,04,17,16,11,12.50
2008,04,17,16,12,12.40
2008,04,17,16,13,12.30
2008,04,17,16,14,12.30
2008,04,17,16,15,12.30
2008,04,17,16,16,12.30
2008,04,17,16,17,12.30
2008,04,17,16,18,12.20
2008,04,17,16,19,12.20
2008,04,17,16,20,12.30
2008,04,17,16,21,12.40
2008,04,17,16,22,12.50
2008,04,17,16,23,12.60
2008,04,17,16,24,12.70
2008,04,17,16,25,12.80
2008,04,17,16,26,12.80
2008,04,17,16,27,12.90
2008,04,17,16,28,13.00
2008,04,17,16,29,13.00
2008,04,17,16,30,13.10
2008,04,17,16,31,13.20
2008,04,17,16,32,13.20
2008,04,17,16,33,13.30
2008,04,17,16,34,13.30
2008,04,17,16,35,13.30
2008,04,17,16,36,13.30
2008,04,17,16,37,13.30
2008,04,17,16,38,13.20
2008,04,17,16,39,13.20
2008,04,17,16,40,13.20
2008,04,17,16,41,13.20
2008,04,17,16,42,13.20
2008,04,17,16,43,13.20
2008,04,17,16,44,13.20
2008,04,17,16,45,13.10
2008,04,17,16,46,13.10
2008,04,17,16,47,13.10
2008,04,17,16,48,13.10
2008,04,17,16,49,13.20
2008,04,17,16,50,13.20
2008,04,17,16,51,13.30
2008,04,17,16,52,13.30
2008,04,17,16,53,13.30
2008,04,17,16,54,13.40
2008,04,17,16,55,13.40
2008,04,17,16,56,13.30
2008,04,17,16,57,13.30
2008,04,17,16,58,13.20
2008,04,17,16,59,13.20
2008,04,17,17,00,13.10
2008,04,17,17,01,12.90
2008,04,17,17,02,12.80
2008,04,17,17,03,12.80
2008,04,17,17,04,12.80
2008,04,17,17,05,12.80
2008,04,17,17,06,12.90
2008,04,17,17,07,12.90
2008,04,17,17,08,12.90
2008,04,17,17,09,12.90
2008,04,17,17,10,12.90
2008,04,17,17,11,12.80
2008,04,17,17,12,12.80
2008,04,17,17,13,12.80
2008,04,17,17,14,12.90
2008,04,17,17,15,13.00
2008,04,17,17,16,13.00
2008,04,17,17,17,13.10
2008,04,17,17,18,13.00
2008,04,17,17,19,13.00
2008,04,17,17,20,12.90
2008,04,17,17,21,12.90
2008,04,17,17,22,12.90
2008,04,17,17,23,12.90
2008,04,17,17,24,12.90
2008,04,17,17,25,12.80
2008,04,17,17,26,12.80
2008,04,17,17,27,12.90
2008,04,17,17,28,12.80
2008,04,17,17,29,12.80
2008,04,17,17,30,12.80
2008,04,17,17,31,12.80
2008,04,17,17,32,12.80
2008,04,17,17,33,12.70
2008,04,17,17,34,12.60
2008,04,17,17,35,12.60
2008,04,17,17,36,12.50
2008,04,17,17,37,12.40
2008,04,17,17,38,12.30
2008,04,17,17,39,12.20
2008,04,17,17,40,12.20
2008,04,17,17,41,12.10
2008,04,17,17,42,12.00
2008,04,17,17,43,12.00
2008,04,17,17,44,11.90